Regional Weather Roundup
Issued by NWS New Orleans/Baton Rouge, LA

Home | Current Version | Previous Version | Graphics & Text | Print | Product List | Glossary On
Versions: 1 2 3 4 5 6 7 8 9 10 11 12 13 14 15 16 17 18 19 20 21 22 23 24 25 26 27 28 29 30 31 32 33 34 35 36 37 38 39 40 41 42 43 44 45 46 47 48 49 50
890
ASUS44 KLIX 241001
RWRLIX
NEW ORLEANS REGIONAL WEATHER ROUNDUP
NATIONAL WEATHER SERVICE NEW ORLEANS LA
500 AM CDT FRI OCT 24 2014

NOTE: "FAIR" INDICATES FEW OR NO CLOUDS BELOW 12,000 FEET WITH NO
      SIGNIFICANT WEATHER AND/OR OBSTRUCTIONS TO VISIBILITY.
      SKY/WX - SKY CONDITION AND SIGNIFICANT WEATHER.
      TMP - AIR TEMPERATURE.     DP    - DEWPOINT TEMPERATURE.
      RH  - RELATIVE HUMIDITY.   PRES  - PRESSURE.
      HI  - HEAT INDEX.          WCI   - WIND CHILL INDEX.

*  THESE STATIONS ARE NOT NWS OR FAA STATIONS AND ARE NOT UNDER
   NWS QUALITY CONTROL.

LAZ038-040-048-061>063-065>067-069-241100-
SOUTHEAST LOUISIANA

CITY           SKY/WX    TMP DP  RH WIND       PRES   REMARKS
N.O. AUDUBON     N/A     59  52  78 MISG        N/A
N.O. INTL ARPT PTCLDY    61  50  67 NE8       30.08S
N.O. LAKEFRONT CLEAR     63  52  67 NE15      30.09R
N.O. DOWNTOWN*   N/A     61  46  59 N6        30.09S
SLIDELL        PTCLDY    50  47  89 N3        30.08S
BATON ROUGE    CLEAR     50  47  89 CALM      30.10R
BOOTHVILLE     CLEAR     67  57  70 N8        30.06R
BELLE CHASSE   CLEAR     54  50  86 N6        30.08R
BOGALUSA*        N/A     49  46  88 CALM      30.10S
NEW ROADS*       N/A     49  48  96 CALM      30.10F
GONZALES*        N/A     52  52 100 CALM      30.09S
HAMMOND*       NOT AVBL
HOUMA*         CLEAR     53  51  95 N3        30.08S
PORT FOURCHON* SUNNY     64  57  77 N7        30.09S

$$

MSZ070-080>082-241100-
SOUTHERN MISSISSIPPI

CITY           SKY/WX    TMP DP  RH WIND       PRES   REMARKS
MCCOMB         CLEAR     50  47  89 CALM      30.09S
GULFPORT       PTCLDY    54  47  77 N5        30.08R
BILOXI         PTCLDY    55  47  75 CALM      30.08R
PASCAGOULA     PTCLDY    49  46  90 CALM      30.07S

$$

COASTAL OBSERVATIONS
LAKE AND NEARSHORE STATIONS

STATION/POSITION TIME  TEMP    WIND        PRES    WAVE
                       AIR SEA DIR/SP/G            HT/PER
                 (UTC) (F)     (DEG/KT/KT) (MB)    (FT/S)
PASCAGOULA       0900   56     360/  8/  9 1017.5
WAVELAND YACHT   0900   58     360/  7/  9 1017.7
GRAND ISLE       0900   67 73   20/ 11/ 14 1018.2
SOUTHWEST PASS   0900   69 81              1017.5
NEW CANAL        0900   63 69   40/ 12/ 16 1019.1
SHELL BEACH      0900   64 67   20/ 13/ 14 1017.9

OFFSHORE STATIONS

STATION/POSITION TIME  TEMP    WIND        PRES    WAVE
                       AIR SEA DIR/SP/G            HT/PER
                 (UTC) (F)     (DEG/KT/KT) (MB)    (FT/S)
64 S DAUPHIN ISL 0928   72 78   40/  6/  8 1017.2    3/ 7

$$




USA.gov is the U.S. government's official web portal to all federal, state and local government web resources and services.